sat.trackr.live / text

‹ back to catalog

ZHUHAI-1 03D

NORAD 44538 · 2019-060E

PAYLOAD ACTIVE UNKNOWN

§ Identity

Operator
Country
PRC
Launch date
2019-09-19
Launch site
JSC
Launch vehicle
Mass (kg)
RCS (m²)

External: N2YO · Heavens-Above · Gunter

§ Orbital elements

Epoch: 2026-09-09T05:25:08.152320Z

Period
92.62 min
Inclination
97.5456°
Eccentricity
0.0006108
Mean motion
15.54667808 rev/d
Perigee alt
399.0 km
Apogee alt
407.3 km
Semi-major
6,781.3 km
B*
5.5844e-4
RAAN
46.2620°
Arg perigee
357.0172°
Mean anomaly
3.1044°
Rev number
38,911

§ Raw data

ZHUHAI-1 03D1 44538U 19060E   26252.22578880  .00037027  00000+0  55844-3 0  99942 44538  97.5456  46.2620 0006108 357.0172   3.1044 15.54667808389116

JSON: /api/v1/satellites/44538 · /tle

For live sub-satellite position, see the globe view (requires WebGL).

§ Visibility from observer

Set your observer location to see the next 7 days of passes ≥ 10°. The values pass through the URL so the page stays shareable.

No JS? Fill the form by hand. The geolocation button needs JavaScript.

§ Radio — SatNOGS DB

ModeDescriptionDownlinkUplink
FM S-band telemetry 2.213 GHz

1 transmitter · refreshed weekly from db.satnogs.org